User: anonymous   Login
Location: Chagrin Falls Park
(41.4139°N, 81.3865°W)
Time: 14:16:22
(UTC+00:00)
Language:

STARLINK-2736 - Orbit

View from above orbital plane
View from above orbital plane
View from above satellite
View from above satellite

Ground track
Ground track

The orbit data is extracted from the following two-line orbital elements,

1 48640C 21044C   21296.05436659  .00004087  00000-0  27391-3 0  2965
2 48640  53.0551  93.1576 0001540  82.4076 309.2794 15.06382717    16
Epoch (UTC): 23 October 2021 01:18:17
Eccentricity: 0.0001540
inclination: 53.0551°
perigee height: 546 km
apogee height: 548 km
right ascension of ascending node: 93.1576°
argument of perigee: 82.4076°
revolutions per day: 15.06382717
mean anomaly at epoch: 309.2794°
orbit number at epoch: 1

The dashed part of the orbit path shows where the satellite is in the earth's shadow,  

DLR